CZ-6A DEB, 60820

Orbit data source: Space-Track

CZ-6A DEB, 60820 is space debris in LEO originally from a launch on Tue, 06 Aug 2024 UTC launched from the Taiyaun Space Center, China (TSC). Debris objects in space refer to the collection of defunct objects orbiting the Earth. Examples of debris include non-operational satellites, rocket bodies, and fragments generated from explosions, collisions, or faulty payload assembly.

Loading next visibility...
Identifier
60820, 2024-140GX
Orbit
LEO
Country
Flag of CNCN / PRC
Related business
Manufacturer
SAST
Mission
Spacecraft
Bus & Motor
Unknown
Mass
Unknown
Launch date (UTC)
2024-08-06 (2 years ago)
Launch vehicle
Unknown
Launch site
Taiyaun Space Center, China (TSC)
Object type
Payload
Rocket body
Debris
Shape & HBR
Unknown shape, 0.2 m
Radar Cross Section
Medium (>0.1 m² and <1 m²)

Expand to show TLE details & history
Last TLE update: 14 hours ago

TLE from 14 hours ago
0 CZ-6A DEB
1 60820U 24140GX  26171.27444706  .00000681  00000-0  28589-3 0  9998
2 60820  88.9936 273.2454 0032418 169.9370 190.2479 14.24569749 96166
Epoch: 2026-06-20T06:35Z
TLE epoch observation values (Epoch: 2026-06-20T06:35:12.225Z)
Latitude
Longitude
-94.04696°
Altitude
835.937 km
Speed
7.423 km/s
True Right ascension
18h 12m 58s
True Declination
0° 00' 00"
Sunlit
Object was in full shadow at epoch
Visualization orbit readout
Latitude
Unknown
Longitude
Unknown
Altitude
Unknown
Speed
Unknown
Apparent Right ascension
Unknown
Apparent Declination
Unknown
Sunlit
N/A
Visualization observer readout
Local Sidereal Time
07:22:55
Azimuth
Unknown
Elevation
Unknown
Doppler factor
Unknown
Orbital elements
Apogee altitude
830.177 km
Perigee altitude
783.592 km
Semi-major axis
7,185.021 km
Eccentricity
0.00324
Inclination
88.9936°
RAAN
273.2454°
Arg. of periapsis
169.937°
True anomaly
190.18207°
Mean anomaly
190.2479°
Eccentric anomaly
190.21496°
Mean motion
3.5637 °/min
Orbital period
101.02 mins
BSTAR
0.00028589
Loading maneuver chart data...
Computing Atmospheric mass density...
Loading historical data...
Loading historical data...
Loading historical data...
Loading historical data...
Loading historical data...
Loading historical data...
Loading historical data...

Documentation

Showing up to 5 results
|